Time,TemperatureF,DewpointF,PressureIn,WindDirection,WindDirectionDegrees,WindSpeedMPH,WindSpeedGustMPH,Humidity,HourlyPrecipIn,Conditions,Clouds,dailyrainin,SoftwareType,DateUTC
2013-03-17 00:00:00,60.9,45.6,30.11,SSW,197,0.0,0.0,57,0.00,,CLR,0.00,VWS V14.01,2013-03-17 04:00:00,
2013-03-17 00:01:00,60.9,45.6,30.10,West,276,0.0,0.0,57,0.00,,CLR,0.00,VWS V14.01,2013-03-17 04:01:00,
2013-03-17 00:06:00,60.9,45.6,30.10,South,176,2.0,2.0,57,0.00,,CLR,0.00,VWS V14.01,2013-03-17 04:06:00,
2013-03-17 00:11:00,60.7,45.4,30.10,South,176,0.0,0.0,57,0.00,,CLR,0.00,VWS V14.01,2013-03-17 04:11:00,
2013-03-17 00:16:00,60.5,45.2,30.11,SSW,198,0.0,0.0,57,0.00,,CLR,0.00,VWS V14.01,2013-03-17 04:16:00,
2013-03-17 00:21:00,60.4,45.6,30.11,SSW,198,0.0,0.0,58,0.00,,CLR,0.00,VWS V14.01,2013-03-17 04:21:00,
2013-03-17 00:27:00,60.2,45.4,30.11,SSW,198,0.0,0.0,58,0.00,,CLR,0.00,VWS V14.01,2013-03-17 04:27:00,
2013-03-17 00:32:00,60.1,45.3,30.11,SSW,198,0.0,0.0,58,0.00,,CLR,0.00,VWS V14.01,2013-03-17 04:32:00,
2013-03-17 00:37:00,59.9,45.5,30.11,SSW,198,0.0,0.0,59,0.00,,CLR,0.00,VWS V14.01,2013-03-17 04:37:00,
2013-03-17 00:42:00,59.6,45.3,30.11,SSW,198,0.0,0.0,59,0.00,,CLR,0.00,VWS V14.01,2013-03-17 04:42:00,
2013-03-17 00:47:00,59.5,45.2,30.11,SSW,198,0.0,0.0,59,0.00,,CLR,0.00,VWS V14.01,2013-03-17 04:47:00,
2013-03-17 00:52:00,59.3,45.4,30.11,SSW,198,0.0,0.0,60,0.00,,CLR,0.00,VWS V14.01,2013-03-17 04:52:00,
2013-03-17 00:57:00,59.3,45.4,30.11,SSW,198,0.0,0.0,60,0.00,,CLR,0.00,VWS V14.01,2013-03-17 04:57:00,
2013-03-17 01:02:00,59.2,45.3,30.11,SSW,198,0.0,0.0,60,0.00,,CLR,0.00,VWS V14.01,2013-03-17 05:02:00,
2013-03-17 01:07:00,59.0,45.6,30.11,SSW,198,0.0,0.0,61,0.00,,CLR,0.00,VWS V14.01,2013-03-17 05:07:00,
2013-03-17 01:12:00,58.9,45.9,30.11,SSW,198,0.0,0.0,62,0.00,,CLR,0.00,VWS V14.01,2013-03-17 05:12:00,
2013-03-17 01:17:00,58.9,46.3,30.12,SSW,198,0.0,0.0,63,0.00,,CLR,0.00,VWS V14.01,2013-03-17 05:17:00,
2013-03-17 01:22:00,59.0,46.4,30.12,SSW,207,0.0,0.0,63,0.00,,CLR,0.00,VWS V14.01,2013-03-17 05:22:00,
2013-03-17 01:27:00,59.0,46.4,30.12,SSW,207,0.0,0.0,63,0.00,,CLR,0.00,VWS V14.01,2013-03-17 05:27:00,
2013-03-17 01:32:00,59.2,46.2,30.11,SSW,207,0.0,0.0,62,0.00,,CLR,0.00,VWS V14.01,2013-03-17 05:32:00,
2013-03-17 01:37:00,59.2,46.2,30.11,South,189,0.0,1.0,62,0.00,,CLR,0.00,VWS V14.01,2013-03-17 05:37:00,
2013-03-17 01:42:00,59.3,45.9,30.11,South,189,0.0,0.0,61,0.00,,CLR,0.00,VWS V14.01,2013-03-17 05:42:00,
2013-03-17 01:47:00,59.3,45.9,30.12,South,189,0.0,0.0,61,0.00,,CLR,0.00,VWS V14.01,2013-03-17 05:47:00,
2013-03-17 01:52:00,59.3,45.9,30.12,South,189,0.0,0.0,61,0.00,,CLR,0.00,VWS V14.01,2013-03-17 05:52:00,
2013-03-17 01:57:00,59.2,45.8,30.12,South,189,0.0,0.0,61,0.00,,CLR,0.00,VWS V14.01,2013-03-17 05:57:00,
2013-03-17 02:02:00,59.3,45.9,30.12,SSW,198,0.0,1.0,61,0.00,,CLR,0.00,VWS V14.01,2013-03-17 06:02:00,
2013-03-17 02:07:00,59.5,46.1,30.12,SSW,198,0.0,0.0,61,0.00,,CLR,0.00,VWS V14.01,2013-03-17 06:07:00,
2013-03-17 02:12:00,59.5,45.6,30.12,SSW,198,0.0,0.0,60,0.00,,CLR,0.00,VWS V14.01,2013-03-17 06:12:00,
2013-03-17 02:17:00,59.6,45.3,30.12,East,101,0.0,0.0,59,0.00,,CLR,0.00,VWS V14.01,2013-03-17 06:17:00,
2013-03-17 02:22:00,59.8,45.5,30.12,East,91,0.0,0.0,59,0.00,,CLR,0.00,VWS V14.01,2013-03-17 06:22:00,
2013-03-17 02:27:00,59.6,45.3,30.12,WNW,295,1.0,1.0,59,0.00,,CLR,0.00,VWS V14.01,2013-03-17 06:27:00,
2013-03-17 02:32:00,59.8,45.5,30.12,South,188,0.0,0.0,59,0.00,,CLR,0.00,VWS V14.01,2013-03-17 06:32:00,
2013-03-17 02:37:00,59.8,45.5,30.12,South,172,0.0,0.0,59,0.00,,CLR,0.00,VWS V14.01,2013-03-17 06:37:00,
2013-03-17 02:42:00,59.6,45.7,30.12,South,172,0.0,0.0,60,0.00,,CLR,0.00,VWS V14.01,2013-03-17 06:42:00,
2013-03-17 02:48:00,59.6,45.7,30.12,South,172,0.0,0.0,60,0.00,,CLR,0.00,VWS V14.01,2013-03-17 06:48:00,
2013-03-17 02:53:00,59.6,45.7,30.12,South,174,0.0,1.0,60,0.00,,CLR,0.00,VWS V14.01,2013-03-17 06:53:00,
2013-03-17 02:58:00,59.6,45.7,30.12,West,271,0.0,0.0,60,0.00,,CLR,0.00,VWS V14.01,2013-03-17 06:58:00,
2013-03-17 03:03:00,59.6,46.2,30.12,SE,128,0.0,0.0,61,0.00,,CLR,0.00,VWS V14.01,2013-03-17 07:03:00,
2013-03-17 03:08:00,59.6,46.2,30.12,SSW,193,0.0,5.0,61,0.00,,CLR,0.00,VWS V14.01,2013-03-17 07:08:00,
2013-03-17 03:13:00,59.6,46.2,30.12,South,176,0.0,5.0,61,0.00,,CLR,0.00,VWS V14.01,2013-03-17 07:13:00,
2013-03-17 03:18:00,59.6,46.2,30.12,South,189,0.0,3.0,61,0.00,,CLR,0.00,VWS V14.01,2013-03-17 07:18:00,
2013-03-17 03:23:00,59.8,46.3,30.12,South,189,0.0,0.0,61,0.00,,CLR,0.00,VWS V14.01,2013-03-17 07:23:00,
2013-03-17 03:28:00,59.6,46.2,30.12,South,189,0.0,1.0,61,0.00,,CLR,0.00,VWS V14.01,2013-03-17 07:28:00,
2013-03-17 03:33:00,59.6,46.6,30.12,SSW,197,0.0,0.0,62,0.00,,CLR,0.00,VWS V14.01,2013-03-17 07:33:00,
2013-03-17 03:38:00,59.6,46.6,30.12,SSW,213,0.0,0.0,62,0.00,,CLR,0.00,VWS V14.01,2013-03-17 07:38:00,
2013-03-17 03:43:00,59.6,47.0,30.12,South,181,0.0,0.0,63,0.00,,CLR,0.00,VWS V14.01,2013-03-17 07:43:00,
2013-03-17 03:48:00,59.8,47.2,30.12,South,182,0.0,0.0,63,0.00,,CLR,0.00,VWS V14.01,2013-03-17 07:48:00,
2013-03-17 03:53:00,59.8,47.2,30.12,WNW,286,0.0,1.0,63,0.00,,CLR,0.00,VWS V14.01,2013-03-17 07:53:00,
2013-03-17 03:58:00,59.8,47.2,30.12,South,169,0.0,3.0,63,0.00,,CLR,0.00,VWS V14.01,2013-03-17 07:58:00,
2013-03-17 04:03:00,59.9,47.3,30.12,WNW,292,1.0,1.0,63,0.00,,CLR,0.00,VWS V14.01,2013-03-17 08:03:00,
2013-03-17 04:08:00,60.1,47.5,30.12,SW,224,0.0,1.0,63,0.00,,CLR,0.00,VWS V14.01,2013-03-17 08:08:00,
2013-03-17 04:13:00,59.9,47.7,30.12,SW,224,0.0,0.0,64,0.00,,CLR,0.00,VWS V14.01,2013-03-17 08:13:00,
2013-03-17 04:18:00,59.9,47.7,30.12,South,186,0.0,4.0,64,0.00,,CLR,0.00,VWS V14.01,2013-03-17 08:18:00,
2013-03-17 04:23:00,59.8,48.0,30.12,SW,233,0.0,0.0,65,0.00,,CLR,0.00,VWS V14.01,2013-03-17 08:23:00,
2013-03-17 04:29:00,59.8,48.0,30.12,SSE,155,0.0,0.0,65,0.00,,CLR,0.00,VWS V14.01,2013-03-17 08:29:00,
2013-03-17 04:34:00,59.8,48.0,30.12,West,280,0.0,0.0,65,0.00,,CLR,0.00,VWS V14.01,2013-03-17 08:34:00,
2013-03-17 04:39:00,59.6,47.8,30.12,South,173,0.0,0.0,65,0.00,,CLR,0.00,VWS V14.01,2013-03-17 08:39:00,
2013-03-17 04:44:00,59.5,48.2,30.12,South,181,0.0,1.0,66,0.00,,CLR,0.00,VWS V14.01,2013-03-17 08:44:00,
2013-03-17 04:49:00,59.3,48.0,30.12,West,269,0.0,2.0,66,0.00,,CLR,0.00,VWS V14.01,2013-03-17 08:49:00,
2013-03-17 04:54:00,59.3,48.4,30.12,South,185,0.0,0.0,67,0.00,,CLR,0.00,VWS V14.01,2013-03-17 08:54:00,
2013-03-17 04:59:00,59.3,48.4,30.12,South,185,0.0,0.0,67,0.00,,CLR,0.00,VWS V14.01,2013-03-17 08:59:00,
2013-03-17 05:04:00,59.3,48.8,30.12,SSW,195,0.0,5.0,68,0.00,,CLR,0.00,VWS V14.01,2013-03-17 09:04:00,
2013-03-17 05:09:00,59.2,48.7,30.12,South,175,0.0,3.0,68,0.00,,CLR,0.00,VWS V14.01,2013-03-17 09:09:00,
2013-03-17 05:14:00,59.2,48.7,30.12,NW,312,0.0,0.0,68,0.00,,CLR,0.00,VWS V14.01,2013-03-17 09:14:00,
2013-03-17 05:20:00,59.0,48.9,30.12,South,169,0.0,0.0,69,0.00,,CLR,0.00,VWS V14.01,2013-03-17 09:20:00,
2013-03-17 05:25:00,59.0,48.9,30.12,SSW,208,0.0,0.0,69,0.00,,CLR,0.00,VWS V14.01,2013-03-17 09:25:00,
2013-03-17 05:30:00,58.9,49.2,30.12,SSW,207,0.0,0.0,70,0.00,,CLR,0.00,VWS V14.01,2013-03-17 09:30:00,
2013-03-17 05:35:00,58.7,49.0,30.13,SSW,208,0.0,1.0,70,0.00,,CLR,0.00,VWS V14.01,2013-03-17 09:35:00,
2013-03-17 05:40:00,58.7,49.3,30.13,SSW,208,0.0,1.0,71,0.00,,CLR,0.00,VWS V14.01,2013-03-17 09:40:00,
2013-03-17 05:45:00,58.6,49.2,30.13,SSW,206,0.0,1.0,71,0.00,,CLR,0.00,VWS V14.01,2013-03-17 09:45:00,
2013-03-17 05:50:00,58.4,49.0,30.13,North,2,0.0,1.0,71,0.00,,CLR,0.00,VWS V14.01,2013-03-17 09:50:00,
2013-03-17 05:55:00,58.3,49.3,30.13,North,1,0.0,0.0,72,0.00,,CLR,0.00,VWS V14.01,2013-03-17 09:55:00,
2013-03-17 06:00:00,58.1,49.1,30.13,South,188,0.0,0.0,72,0.00,,CLR,0.00,VWS V14.01,2013-03-17 10:00:00,
2013-03-17 06:05:00,58.1,49.5,30.13,SSW,197,0.0,1.0,73,0.00,,CLR,0.00,VWS V14.01,2013-03-17 10:05:00,
2013-03-17 06:10:00,58.0,49.4,30.13,South,180,0.0,0.0,73,0.00,,CLR,0.00,VWS V14.01,2013-03-17 10:10:00,
2013-03-17 06:15:00,57.8,49.6,30.13,SW,217,0.0,0.0,74,0.00,,CLR,0.00,VWS V14.01,2013-03-17 10:15:00,
2013-03-17 06:20:00,57.8,49.9,30.14,South,179,0.0,0.0,75,0.00,,CLR,0.00,VWS V14.01,2013-03-17 10:20:00,
2013-03-17 06:26:00,57.6,49.8,30.14,South,179,0.0,0.0,75,0.00,,CLR,0.00,VWS V14.01,2013-03-17 10:26:00,
2013-03-17 06:32:00,57.5,49.7,30.15,South,179,0.0,0.0,75,0.00,,CLR,0.00,VWS V14.01,2013-03-17 10:32:00,
2013-03-17 06:37:00,57.3,49.8,30.15,South,179,0.0,0.0,76,0.00,,CLR,0.00,VWS V14.01,2013-03-17 10:37:00,
2013-03-17 06:42:00,57.3,49.8,30.15,South,178,0.0,0.0,76,0.00,,CLR,0.00,VWS V14.01,2013-03-17 10:42:00,
2013-03-17 06:47:00,57.3,50.2,30.15,WSW,242,0.0,0.0,77,0.00,,CLR,0.00,VWS V14.01,2013-03-17 10:47:00,
2013-03-17 06:52:00,57.3,50.2,30.15,WSW,242,0.0,0.0,77,0.00,,CLR,0.00,VWS V14.01,2013-03-17 10:52:00,
2013-03-17 06:57:00,57.3,50.2,30.15,South,187,0.0,0.0,77,0.00,,CLR,0.00,VWS V14.01,2013-03-17 10:57:00,
2013-03-17 07:02:00,57.3,50.2,30.15,SSW,193,0.0,0.0,77,0.00,,CLR,0.00,VWS V14.01,2013-03-17 11:02:00,
2013-03-17 07:07:00,57.3,50.2,30.15,WSW,255,0.0,0.0,77,0.00,,CLR,0.00,VWS V14.01,2013-03-17 11:07:00,
2013-03-17 07:12:00,57.3,50.2,30.15,WSW,255,0.0,0.0,77,0.00,,CLR,0.00,VWS V14.01,2013-03-17 11:12:00,
2013-03-17 07:17:00,57.3,50.5,30.16,WSW,255,0.0,0.0,78,0.00,,CLR,0.00,VWS V14.01,2013-03-17 11:17:00,
2013-03-17 07:22:00,57.3,50.5,30.16,South,169,0.0,0.0,78,0.00,,CLR,0.00,VWS V14.01,2013-03-17 11:22:00,
2013-03-17 07:28:00,57.3,50.5,30.16,South,184,0.0,0.0,78,0.00,,CLR,0.00,VWS V14.01,2013-03-17 11:28:00,
2013-03-17 07:33:00,57.3,50.5,30.17,SW,222,1.0,1.0,78,0.00,,CLR,0.00,VWS V14.01,2013-03-17 11:33:00,
2013-03-17 07:38:00,57.5,50.7,30.17,SW,222,0.0,0.0,78,0.00,,CLR,0.00,VWS V14.01,2013-03-17 11:38:00,
2013-03-17 07:43:00,57.3,50.5,30.17,SW,222,0.0,0.0,78,0.00,,CLR,0.00,VWS V14.01,2013-03-17 11:43:00,
2013-03-17 07:48:00,57.3,50.5,30.17,South,188,0.0,0.0,78,0.00,,CLR,0.00,VWS V14.01,2013-03-17 11:48:00,
2013-03-17 07:53:00,57.3,50.8,30.17,South,188,0.0,0.0,79,0.00,,CLR,0.00,VWS V14.01,2013-03-17 11:53:00,
2013-03-17 07:59:00,57.5,51.0,30.17,SSE,151,0.0,0.0,79,0.00,,CLR,0.00,VWS V14.01,2013-03-17 11:59:00,
2013-03-17 08:04:00,57.8,51.3,30.17,SSW,207,0.0,0.0,79,0.00,,FEW250,0.00,VWS V14.01,2013-03-17 12:04:00,
2013-03-17 08:09:00,58.1,51.3,30.17,WSW,257,0.0,0.0,78,0.00,,FEW250,0.00,VWS V14.01,2013-03-17 12:09:00,
2013-03-17 08:14:00,58.6,51.8,30.17,SSE,165,0.0,1.0,78,0.00,,FEW250,0.00,VWS V14.01,2013-03-17 12:14:00,
2013-03-17 08:19:00,58.9,51.7,30.18,SSE,159,0.0,1.0,77,0.00,,FEW250,0.00,VWS V14.01,2013-03-17 12:19:00,
2013-03-17 08:24:00,59.5,52.3,30.18,SSE,153,0.0,2.0,77,0.00,,FEW250,0.00,VWS V14.01,2013-03-17 12:24:00,
2013-03-17 08:29:00,59.9,52.3,30.18,WSW,252,0.0,0.0,76,0.00,,FEW250,0.00,VWS V14.01,2013-03-17 12:29:00,
2013-03-17 08:34:00,60.4,52.5,30.18,WSW,250,0.0,0.0,75,0.00,,FEW250,0.00,VWS V14.01,2013-03-17 12:34:00,
2013-03-17 08:40:00,60.9,52.6,30.18,South,173,0.0,0.0,74,0.00,,FEW250,0.00,VWS V14.01,2013-03-17 12:40:00,
2013-03-17 08:45:00,61.3,52.6,30.18,WNW,292,0.0,4.0,73,0.00,,FEW250,0.00,VWS V14.01,2013-03-17 12:45:00,
2013-03-17 08:50:00,61.6,52.5,30.18,NNW,343,0.0,4.0,72,0.00,,FEW250,0.00,VWS V14.01,2013-03-17 12:50:00,
2013-03-17 08:55:00,62.0,52.9,30.18,West,269,0.0,5.0,72,0.00,,FEW250,0.00,VWS V14.01,2013-03-17 12:55:00,
2013-03-17 09:00:00,62.4,52.9,30.18,South,169,0.0,4.0,71,0.00,,FEW250,0.00,VWS V14.01,2013-03-17 13:00:00,
2013-03-17 09:05:00,62.7,52.8,30.18,WSW,255,1.0,5.0,70,0.00,,FEW250,0.00,VWS V14.01,2013-03-17 13:05:00,
2013-03-17 09:10:00,63.2,52.9,30.18,WSW,248,0.0,2.0,69,0.00,,FEW250,0.00,VWS V14.01,2013-03-17 13:10:00,
2013-03-17 09:15:00,63.5,53.2,30.18,WSW,248,1.0,4.0,69,0.00,,FEW250,0.00,VWS V14.01,2013-03-17 13:15:00,
2013-03-17 09:21:00,63.9,53.1,30.18,WNW,285,0.0,2.0,68,0.00,,FEW250,0.00,VWS V14.01,2013-03-17 13:21:00,
2013-03-17 09:26:00,64.2,53.4,30.18,SSW,207,0.0,0.0,68,0.00,,FEW250,0.00,VWS V14.01,2013-03-17 13:26:00,
2013-03-17 09:31:00,64.7,53.1,30.18,ESE,113,0.0,3.0,66,0.00,,FEW250,0.00,VWS V14.01,2013-03-17 13:31:00,
2013-03-17 09:36:00,64.7,53.1,30.18,SW,219,0.0,6.0,66,0.00,,FEW250,0.00,VWS V14.01,2013-03-17 13:36:00,
2013-03-17 09:41:00,65.0,53.4,30.18,WSW,250,0.0,0.0,66,0.00,,FEW250,0.00,VWS V14.01,2013-03-17 13:41:00,
2013-03-17 09:46:00,65.3,53.2,30.18,South,186,0.0,1.0,65,0.00,,FEW250,0.00,VWS V14.01,2013-03-17 13:46:00,
2013-03-17 09:52:00,65.6,53.1,30.18,South,178,0.0,0.0,64,0.00,,FEW250,0.00,VWS V14.01,2013-03-17 13:52:00,
2013-03-17 09:57:00,66.0,53.1,30.18,West,263,0.0,0.0,63,0.00,,FEW250,0.00,VWS V14.01,2013-03-17 13:57:00,
2013-03-17 10:02:00,66.4,53.0,30.19,WSW,241,0.0,3.0,62,0.00,,FEW250,0.00,VWS V14.01,2013-03-17 14:02:00,
2013-03-17 10:07:00,66.6,53.2,30.19,SSW,200,0.0,0.0,62,0.00,,FEW250,0.00,VWS V14.01,2013-03-17 14:07:00,
2013-03-17 10:12:00,67.1,53.2,30.19,SE,143,3.0,3.0,61,0.00,,FEW250,0.00,VWS V14.01,2013-03-17 14:12:00,
2013-03-17 10:17:00,67.6,53.7,30.19,SW,218,5.0,5.0,61,0.00,,FEW250,0.00,VWS V14.01,2013-03-17 14:17:00,
2013-03-17 10:22:00,67.9,53.5,30.19,WSW,250,1.0,2.0,60,0.00,,FEW250,0.00,VWS V14.01,2013-03-17 14:22:00,
2013-03-17 10:28:00,67.9,53.1,30.19,West,259,0.0,0.0,59,0.00,,FEW250,0.00,VWS V14.01,2013-03-17 14:28:00,
2013-03-17 10:33:00,68.4,53.1,30.18,WNW,286,4.0,6.0,58,0.00,,FEW250,0.00,VWS V14.01,2013-03-17 14:33:00,
2013-03-17 10:38:00,68.8,53.4,30.18,WSW,254,0.0,4.0,58,0.00,,FEW250,0.00,VWS V14.01,2013-03-17 14:38:00,
2013-03-17 10:43:00,69.4,53.0,30.18,NW,308,1.0,4.0,56,0.00,,FEW250,0.00,VWS V14.01,2013-03-17 14:43:00,
2013-03-17 10:48:00,69.4,53.5,30.19,NNW,336,0.0,6.0,57,0.00,,FEW250,0.00,VWS V14.01,2013-03-17 14:48:00,
2013-03-17 10:53:00,69.8,53.9,30.19,SSE,155,0.0,0.0,57,0.00,,FEW250,0.00,VWS V14.01,2013-03-17 14:53:00,
2013-03-17 10:59:00,70.4,53.5,30.19,SW,224,0.0,0.0,55,0.00,,FEW250,0.00,VWS V14.01,2013-03-17 14:59:00,
2013-03-17 11:04:00,70.1,53.2,30.18,West,259,0.0,0.0,55,0.00,,BKN250,0.00,VWS V14.01,2013-03-17 15:04:00,
2013-03-17 11:09:00,70.3,52.9,30.18,ENE,58,5.0,5.0,54,0.00,,BKN250,0.00,VWS V14.01,2013-03-17 15:09:00,
2013-03-17 11:14:00,70.4,53.0,30.18,SW,231,0.0,1.0,54,0.00,,BKN250,0.00,VWS V14.01,2013-03-17 15:14:00,
2013-03-17 11:19:00,70.9,52.9,30.18,WSW,255,0.0,3.0,53,0.00,,BKN250,0.00,VWS V14.01,2013-03-17 15:19:00,
2013-03-17 11:24:00,71.8,53.2,30.18,WNW,287,0.0,2.0,52,0.00,,BKN250,0.00,VWS V14.01,2013-03-17 15:24:00,
2013-03-17 11:29:00,72.0,52.9,30.18,South,170,0.0,4.0,51,0.00,,BKN250,0.00,VWS V14.01,2013-03-17 15:29:00,
2013-03-17 11:34:00,72.1,53.0,30.18,WSW,247,0.0,2.0,51,0.00,,BKN250,0.00,VWS V14.01,2013-03-17 15:34:00,
2013-03-17 11:40:00,72.7,53.5,30.18,WSW,257,0.0,0.0,51,0.00,,BKN250,0.00,VWS V14.01,2013-03-17 15:40:00,
2013-03-17 11:45:00,72.5,52.3,30.18,WSW,251,2.0,3.0,49,0.00,,BKN250,0.00,VWS V14.01,2013-03-17 15:45:00,
2013-03-17 11:50:00,72.8,52.5,30.18,East,86,3.0,4.0,49,0.00,,BKN250,0.00,VWS V14.01,2013-03-17 15:50:00,
2013-03-17 11:55:00,72.8,52.5,30.18,WSW,250,0.0,2.0,49,0.00,,BKN250,0.00,VWS V14.01,2013-03-17 15:55:00,
2013-03-17 12:00:00,73.0,53.3,30.18,NW,311,0.0,0.0,50,0.00,,BKN250,0.00,VWS V14.01,2013-03-17 16:00:00,
2013-03-17 12:05:00,74.0,54.2,30.17,SE,127,0.0,0.0,50,0.00,,BKN250,0.00,VWS V14.01,2013-03-17 16:05:00,
2013-03-17 12:10:00,74.4,52.9,30.17,SSE,162,0.0,1.0,47,0.00,,BKN250,0.00,VWS V14.01,2013-03-17 16:10:00,
2013-03-17 12:15:00,74.4,52.9,30.17,South,191,0.0,0.0,47,0.00,,BKN250,0.00,VWS V14.01,2013-03-17 16:15:00,
2013-03-17 12:20:00,74.2,52.7,30.17,SSW,205,0.0,0.0,47,0.00,,BKN250,0.00,VWS V14.01,2013-03-17 16:20:00,
2013-03-17 12:25:00,74.9,53.3,30.17,South,186,0.0,1.0,47,0.00,,BKN250,0.00,VWS V14.01,2013-03-17 16:25:00,
2013-03-17 12:30:00,74.7,52.6,30.17,WSW,240,0.0,4.0,46,0.00,,BKN250,0.00,VWS V14.01,2013-03-17 16:30:00,
2013-03-17 12:35:00,74.9,52.8,30.17,WSW,238,0.0,0.0,46,0.00,,BKN250,0.00,VWS V14.01,2013-03-17 16:35:00,
2013-03-17 12:41:00,75.6,53.4,30.17,SW,233,0.0,0.0,46,0.00,,BKN250,0.00,VWS V14.01,2013-03-17 16:41:00,
2013-03-17 12:46:00,76.0,53.2,30.16,WSW,253,0.0,3.0,45,0.00,,BKN250,0.00,VWS V14.01,2013-03-17 16:46:00,
2013-03-17 12:51:00,76.1,53.8,30.16,NW,307,1.0,2.0,46,0.00,,BKN250,0.00,VWS V14.01,2013-03-17 16:51:00,
2013-03-17 12:56:00,76.7,53.2,30.16,SW,224,0.0,1.0,44,0.00,,BKN250,0.00,VWS V14.01,2013-03-17 16:56:00,
2013-03-17 13:01:00,76.7,52.5,30.15,WNW,295,0.0,1.0,43,0.00,,BKN250,0.00,VWS V14.01,2013-03-17 17:01:00,
2013-03-17 13:06:00,76.7,52.5,30.15,SE,143,1.0,1.0,43,0.00,,BKN250,0.00,VWS V14.01,2013-03-17 17:06:00,
2013-03-17 13:12:00,77.0,52.2,30.15,NW,311,0.0,0.0,42,0.00,,BKN250,0.00,VWS V14.01,2013-03-17 17:12:00,
2013-03-17 13:17:00,77.2,53.0,30.15,SSW,195,0.0,0.0,43,0.00,,BKN250,0.00,VWS V14.01,2013-03-17 17:17:00,
2013-03-17 13:22:00,77.2,51.7,30.15,WSW,245,0.0,1.0,41,0.00,,BKN250,0.00,VWS V14.01,2013-03-17 17:22:00,
2013-03-17 13:27:00,77.0,52.8,30.15,West,271,0.0,1.0,43,0.00,,BKN250,0.00,VWS V14.01,2013-03-17 17:27:00,
2013-03-17 13:32:00,76.8,52.6,30.14,SW,230,0.0,1.0,43,0.00,,BKN250,0.00,VWS V14.01,2013-03-17 17:32:00,
2013-03-17 13:37:00,77.4,52.5,30.14,SSW,197,0.0,4.0,42,0.00,,BKN250,0.00,VWS V14.01,2013-03-17 17:37:00,
2013-03-17 13:42:00,77.4,52.5,30.14,SSW,192,0.0,0.0,42,0.00,,BKN250,0.00,VWS V14.01,2013-03-17 17:42:00,
2013-03-17 13:47:00,77.6,53.4,30.13,WSW,248,0.0,1.0,43,0.00,,BKN250,0.00,VWS V14.01,2013-03-17 17:47:00,
2013-03-17 13:52:00,77.4,52.5,30.13,West,281,0.0,4.0,42,0.00,,BKN250,0.00,VWS V14.01,2013-03-17 17:52:00,
2013-03-17 13:57:00,77.0,52.8,30.13,West,276,0.0,1.0,43,0.00,,BKN250,0.00,VWS V14.01,2013-03-17 17:57:00,
2013-03-17 14:02:00,77.4,49.8,30.13,West,264,3.0,3.0,38,0.00,,BKN250,0.00,VWS V14.01,2013-03-17 18:02:00,
2013-03-17 14:07:00,77.6,50.0,30.13,West,263,0.0,3.0,38,0.00,,BKN250,0.00,VWS V14.01,2013-03-17 18:07:00,
2013-03-17 14:13:00,77.6,51.4,30.13,SSW,205,0.0,2.0,40,0.00,,BKN250,0.00,VWS V14.01,2013-03-17 18:13:00,
2013-03-17 14:18:00,77.9,51.7,30.12,SW,215,0.0,0.0,40,0.00,,BKN250,0.00,VWS V14.01,2013-03-17 18:18:00,
2013-03-17 14:23:00,77.2,49.7,30.12,WSW,240,0.0,1.0,38,0.00,,BKN250,0.00,VWS V14.01,2013-03-17 18:23:00,
2013-03-17 14:28:00,76.5,51.1,30.12,North,358,1.0,1.0,41,0.00,,BKN250,0.00,VWS V14.01,2013-03-17 18:28:00,
2013-03-17 14:33:00,76.0,50.0,30.12,SW,215,0.0,2.0,40,0.00,,BKN250,0.00,VWS V14.01,2013-03-17 18:33:00,
2013-03-17 14:38:00,76.3,50.2,30.12,SW,233,0.0,2.0,40,0.00,,BKN250,0.00,VWS V14.01,2013-03-17 18:38:00,
2013-03-17 14:43:00,77.2,49.7,30.12,SW,236,2.0,2.0,38,0.00,,BKN250,0.00,VWS V14.01,2013-03-17 18:43:00,
2013-03-17 14:49:00,77.4,49.8,30.11,SSW,193,0.0,3.0,38,0.00,,BKN250,0.00,VWS V14.01,2013-03-17 18:49:00,
2013-03-17 14:54:00,77.2,49.7,30.11,SSW,205,0.0,0.0,38,0.00,,BKN250,0.00,VWS V14.01,2013-03-17 18:54:00,
2013-03-17 14:59:00,77.0,49.5,30.11,NW,307,0.0,2.0,38,0.00,,BKN250,0.00,VWS V14.01,2013-03-17 18:59:00,
2013-03-17 15:04:00,76.1,50.0,30.10,SSW,200,0.0,0.0,40,0.00,,BKN250,0.00,VWS V14.01,2013-03-17 19:04:00,
2013-03-17 15:09:00,76.5,50.4,30.10,WSW,242,0.0,1.0,40,0.00,,BKN250,0.00,VWS V14.01,2013-03-17 19:09:00,
2013-03-17 15:14:00,77.4,50.5,30.10,SSW,195,0.0,3.0,39,0.00,,BKN250,0.00,VWS V14.01,2013-03-17 19:14:00,
2013-03-17 15:19:00,77.2,48.9,30.10,WSW,241,0.0,1.0,37,0.00,,BKN250,0.00,VWS V14.01,2013-03-17 19:19:00,
2013-03-17 15:24:00,76.3,48.8,30.10,West,275,0.0,0.0,38,0.00,,BKN250,0.00,VWS V14.01,2013-03-17 19:24:00,
2013-03-17 15:29:00,75.8,49.8,30.10,West,268,0.0,4.0,40,0.00,,BKN250,0.00,VWS V14.01,2013-03-17 19:29:00,
2013-03-17 15:34:00,75.3,50.7,30.10,SW,235,0.0,4.0,42,0.00,,BKN250,0.00,VWS V14.01,2013-03-17 19:34:00,
2013-03-17 15:39:00,75.4,50.7,30.10,WNW,289,1.0,5.0,42,0.00,,BKN250,0.00,VWS V14.01,2013-03-17 19:39:00,
2013-03-17 15:44:00,76.3,50.2,30.10,South,172,0.0,0.0,40,0.00,,BKN250,0.00,VWS V14.01,2013-03-17 19:44:00,
2013-03-17 15:49:00,76.0,50.0,30.10,WSW,244,0.0,7.0,40,0.00,,BKN250,0.00,VWS V14.01,2013-03-17 19:49:00,
2013-03-17 15:54:00,75.3,50.0,30.10,WSW,250,0.0,2.0,41,0.00,,BKN250,0.00,VWS V14.01,2013-03-17 19:54:00,
2013-03-17 15:59:00,75.4,50.7,30.10,South,172,0.0,0.0,42,0.00,,BKN250,0.00,VWS V14.01,2013-03-17 19:59:00,
2013-03-17 16:04:00,75.4,50.1,30.10,South,181,0.0,0.0,41,0.00,,BKN250,0.00,VWS V14.01,2013-03-17 20:04:00,
2013-03-17 16:09:00,75.4,50.7,30.10,SSW,205,0.0,0.0,42,0.00,,BKN250,0.00,VWS V14.01,2013-03-17 20:09:00,
2013-03-17 16:14:00,75.8,52.4,30.10,WNW,299,0.0,0.0,44,0.00,,BKN250,0.00,VWS V14.01,2013-03-17 20:14:00,
2013-03-17 16:20:00,75.4,53.2,30.10,NE,44,2.0,4.0,46,0.00,,BKN250,0.00,VWS V14.01,2013-03-17 20:20:00,
2013-03-17 16:25:00,74.7,53.7,30.10,NNW,348,1.0,2.0,48,0.00,,BKN250,0.00,VWS V14.01,2013-03-17 20:25:00,
2013-03-17 16:30:00,73.9,53.6,30.10,WNW,293,0.0,3.0,49,0.00,,BKN250,0.00,VWS V14.01,2013-03-17 20:30:00,
2013-03-17 16:35:00,73.7,54.5,30.10,WNW,294,0.0,1.0,51,0.00,,BKN250,0.00,VWS V14.01,2013-03-17 20:35:00,
2013-03-17 16:40:00,73.0,54.4,30.10,West,281,0.0,0.0,52,0.00,,BKN250,0.00,VWS V14.01,2013-03-17 20:40:00,
2013-03-17 16:45:00,72.5,54.4,30.10,East,91,0.0,1.0,53,0.00,,BKN250,0.00,VWS V14.01,2013-03-17 20:45:00,
2013-03-17 16:50:00,72.3,54.7,30.11,South,169,0.0,0.0,54,0.00,,BKN250,0.00,VWS V14.01,2013-03-17 20:50:00,
2013-03-17 16:56:00,72.0,54.0,30.11,North,358,0.0,2.0,53,0.00,,BKN250,0.00,VWS V14.01,2013-03-17 20:56:00,
2013-03-17 17:01:00,71.3,54.3,30.11,West,265,0.0,4.0,55,0.00,,OVC180,0.00,VWS V14.01,2013-03-17 21:01:00,
2013-03-17 17:06:00,71.1,54.1,30.11,NE,56,0.0,4.0,55,0.00,,OVC180,0.00,VWS V14.01,2013-03-17 21:06:00,
2013-03-17 17:11:00,70.9,54.4,30.11,WNW,300,0.0,2.0,56,0.00,,OVC180,0.00,VWS V14.01,2013-03-17 21:11:00,
2013-03-17 17:17:00,70.8,54.3,30.11,WSW,256,0.0,1.0,56,0.00,,OVC180,0.00,VWS V14.01,2013-03-17 21:17:00,
2013-03-17 17:22:00,70.3,53.9,30.11,NNE,32,2.0,4.0,56,0.00,,OVC180,0.00,VWS V14.01,2013-03-17 21:22:00,
2013-03-17 17:27:00,69.9,53.5,30.11,ENE,69,0.0,2.0,56,0.00,,OVC180,0.00,VWS V14.01,2013-03-17 21:27:00,
2013-03-17 17:32:00,69.6,52.2,30.11,NNW,327,0.0,3.0,54,0.00,,OVC180,0.00,VWS V14.01,2013-03-17 21:32:00,
2013-03-17 17:37:00,69.3,50.9,30.11,WNW,302,0.0,2.0,52,0.00,,OVC180,0.00,VWS V14.01,2013-03-17 21:37:00,
2013-03-17 17:43:00,68.9,49.0,30.11,West,280,0.0,1.0,49,0.00,,OVC180,0.00,VWS V14.01,2013-03-17 21:43:00,
2013-03-17 17:48:00,68.6,48.2,30.12,WSW,243,1.0,4.0,48,0.00,,OVC180,0.00,VWS V14.01,2013-03-17 21:48:00,
2013-03-17 17:53:00,68.4,48.0,30.12,NNW,334,1.0,3.0,48,0.00,,OVC180,0.00,VWS V14.01,2013-03-17 21:53:00,
2013-03-17 17:58:00,68.3,48.4,30.12,South,169,0.0,1.0,49,0.00,,OVC180,0.00,VWS V14.01,2013-03-17 21:58:00,
2013-03-17 18:03:00,68.3,48.4,30.12,ENE,73,0.0,1.0,49,0.00,,OVC180,0.00,VWS V14.01,2013-03-17 22:03:00,
2013-03-17 18:08:00,68.1,48.2,30.12,SW,217,0.0,4.0,49,0.00,,OVC180,0.00,VWS V14.01,2013-03-17 22:08:00,
2013-03-17 18:13:00,68.1,48.2,30.12,WNW,291,2.0,4.0,49,0.00,,OVC180,0.00,VWS V14.01,2013-03-17 22:13:00,
2013-03-17 18:18:00,67.8,48.0,30.12,SW,236,0.0,2.0,49,0.00,,OVC180,0.00,VWS V14.01,2013-03-17 22:18:00,
2013-03-17 18:23:00,67.6,48.3,30.12,SE,136,1.0,1.0,50,0.00,,OVC180,0.00,VWS V14.01,2013-03-17 22:23:00,
2013-03-17 18:29:00,67.4,48.7,30.12,WNW,297,0.0,1.0,51,0.00,,OVC180,0.00,VWS V14.01,2013-03-17 22:29:00,
2013-03-17 18:34:00,67.3,48.6,30.14,NW,309,0.0,2.0,51,0.00,,OVC180,0.00,VWS V14.01,2013-03-17 22:34:00,
2013-03-17 18:39:00,66.9,48.7,30.14,NNW,340,0.0,1.0,52,0.00,,OVC180,0.00,VWS V14.01,2013-03-17 22:39:00,
2013-03-17 18:44:00,66.8,48.6,30.14,West,267,0.0,0.0,52,0.00,,OVC180,0.00,VWS V14.01,2013-03-17 22:44:00,
2013-03-17 18:49:00,66.4,48.3,30.14,East,99,0.0,1.0,52,0.00,,OVC180,0.00,VWS V14.01,2013-03-17 22:49:00,
2013-03-17 18:54:00,66.3,48.2,30.14,NNW,335,0.0,0.0,52,0.00,,OVC180,0.00,VWS V14.01,2013-03-17 22:54:00,
2013-03-17 18:59:00,66.1,48.0,30.14,WSW,241,0.0,0.0,52,0.00,,OVC180,0.00,VWS V14.01,2013-03-17 22:59:00,
2013-03-17 19:04:00,66.0,47.9,30.14,NE,37,0.0,2.0,52,0.00,,OVC160,0.00,VWS V14.01,2013-03-17 23:04:00,
2013-03-17 19:10:00,66.0,47.9,30.14,SE,143,0.0,0.0,52,0.00,,OVC160,0.00,VWS V14.01,2013-03-17 23:10:00,
2013-03-17 19:15:00,65.6,48.0,30.14,WNW,302,0.0,0.0,53,0.00,,OVC160,0.00,VWS V14.01,2013-03-17 23:15:00,
2013-03-17 19:20:00,65.5,47.9,30.14,NW,309,0.0,0.0,53,0.00,,OVC160,0.00,VWS V14.01,2013-03-17 23:20:00,
2013-03-17 19:25:00,65.3,48.2,30.14,West,278,0.0,1.0,54,0.00,,OVC160,0.00,VWS V14.01,2013-03-17 23:25:00,
2013-03-17 19:30:00,65.0,48.0,30.14,West,278,0.0,0.0,54,0.00,,OVC160,0.00,VWS V14.01,2013-03-17 23:30:00,
2013-03-17 19:35:00,65.0,48.0,30.15,ESE,118,0.0,0.0,54,0.00,,OVC160,0.00,VWS V14.01,2013-03-17 23:35:00,
2013-03-17 19:40:00,64.8,47.3,30.15,WSW,256,0.0,0.0,53,0.00,,OVC160,0.00,VWS V14.01,2013-03-17 23:40:00,
2013-03-17 19:45:00,64.7,47.7,30.15,East,91,0.0,0.0,54,0.00,,OVC160,0.00,VWS V14.01,2013-03-17 23:45:00,
2013-03-17 19:50:00,64.7,47.7,30.15,West,279,3.0,3.0,54,0.00,,OVC160,0.00,VWS V14.01,2013-03-17 23:50:00,
2013-03-17 19:55:00,64.5,47.5,30.15,West,266,0.0,0.0,54,0.00,,OVC160,0.00,VWS V14.01,2013-03-17 23:55:00,
2013-03-17 20:00:00,64.3,47.3,30.15,South,191,0.0,0.0,54,0.00,,OVC200,0.00,VWS V14.01,2013-03-18 00:00:00,
2013-03-17 20:05:00,64.3,46.8,30.16,SSE,151,0.0,0.0,53,0.00,,OVC200,0.00,VWS V14.01,2013-03-18 00:05:00,
2013-03-17 20:10:00,64.2,47.2,30.16,South,174,0.0,0.0,54,0.00,,OVC200,0.00,VWS V14.01,2013-03-18 00:10:00,
2013-03-17 20:15:00,64.0,47.0,30.16,SSE,166,0.0,1.0,54,0.00,,OVC200,0.00,VWS V14.01,2013-03-18 00:15:00,
2013-03-17 20:20:00,63.9,47.0,30.16,ESE,117,0.0,0.0,54,0.00,,OVC200,0.00,VWS V14.01,2013-03-18 00:20:00,
2013-03-17 20:25:00,63.7,47.2,30.16,SW,236,0.0,0.0,55,0.00,,OVC200,0.00,VWS V14.01,2013-03-18 00:25:00,
2013-03-17 20:30:00,63.5,47.1,30.16,West,276,0.0,0.0,55,0.00,,OVC200,0.00,VWS V14.01,2013-03-18 00:30:00,
2013-03-17 20:36:00,63.4,47.5,30.17,WSW,245,0.0,0.0,56,0.00,,OVC200,0.00,VWS V14.01,2013-03-18 00:36:00,
2013-03-17 20:41:00,63.2,47.3,30.17,SW,221,0.0,0.0,56,0.00,,OVC200,0.00,VWS V14.01,2013-03-18 00:41:00,
2013-03-17 20:46:00,63.1,47.6,30.17,SE,129,0.0,0.0,57,0.00,,OVC200,0.00,VWS V14.01,2013-03-18 00:46:00,
2013-03-17 20:51:00,63.1,47.6,30.17,West,261,0.0,1.0,57,0.00,,OVC200,0.00,VWS V14.01,2013-03-18 00:51:00,
2013-03-17 20:56:00,63.1,47.6,30.17,East,99,0.0,0.0,57,0.00,,OVC200,0.00,VWS V14.01,2013-03-18 00:56:00,
2013-03-17 21:02:00,63.1,47.6,30.17,NNW,339,0.0,2.0,57,0.00,,OVC200,0.00,VWS V14.01,2013-03-18 01:02:00,
2013-03-17 21:07:00,63.1,48.1,30.17,NE,55,0.0,1.0,58,0.00,,OVC200,0.00,VWS V14.01,2013-03-18 01:07:00,
2013-03-17 21:12:00,63.1,48.1,30.17,West,274,0.0,1.0,58,0.00,,OVC200,0.00,VWS V14.01,2013-03-18 01:12:00,
2013-03-17 21:17:00,63.1,48.1,30.17,WNW,296,0.0,0.0,58,0.00,,OVC200,0.00,VWS V14.01,2013-03-18 01:17:00,
2013-03-17 21:22:00,63.1,48.1,30.17,South,184,0.0,1.0,58,0.00,,OVC200,0.00,VWS V14.01,2013-03-18 01:22:00,
2013-03-17 21:27:00,63.1,48.1,30.17,East,84,0.0,1.0,58,0.00,,OVC200,0.00,VWS V14.01,2013-03-18 01:27:00,
2013-03-17 21:32:00,63.1,48.1,30.17,WNW,301,0.0,1.0,58,0.00,,OVC200,0.00,VWS V14.01,2013-03-18 01:32:00,
2013-03-17 21:37:00,62.9,48.4,30.17,SSW,199,0.0,1.0,59,0.00,,OVC200,0.00,VWS V14.01,2013-03-18 01:37:00,
2013-03-17 21:42:00,63.1,48.6,30.17,NW,305,0.0,0.0,59,0.00,,OVC200,0.00,VWS V14.01,2013-03-18 01:42:00,
2013-03-17 21:48:00,63.1,48.6,30.18,SE,139,0.0,0.0,59,0.00,,OVC200,0.00,VWS V14.01,2013-03-18 01:48:00,
2013-03-17 21:53:00,63.1,48.6,30.18,SW,236,0.0,0.0,59,0.00,,OVC200,0.00,VWS V14.01,2013-03-18 01:53:00,
2013-03-17 21:58:00,63.1,48.6,30.18,SW,235,0.0,0.0,59,0.00,,OVC200,0.00,VWS V14.01,2013-03-18 01:58:00,
2013-03-17 22:03:00,63.1,49.0,30.18,NW,312,0.0,3.0,60,0.00,,OVC150,0.00,VWS V14.01,2013-03-18 02:03:00,
2013-03-17 22:08:00,63.1,49.0,30.18,SSW,200,0.0,0.0,60,0.00,,OVC150,0.00,VWS V14.01,2013-03-18 02:08:00,
2013-03-17 22:13:00,63.1,49.0,30.18,SSW,200,0.0,0.0,60,0.00,,OVC150,0.00,VWS V14.01,2013-03-18 02:13:00,
2013-03-17 22:18:00,63.1,49.0,30.18,WNW,283,0.0,0.0,60,0.00,,OVC150,0.00,VWS V14.01,2013-03-18 02:18:00,
2013-03-17 22:23:00,63.1,49.5,30.18,WNW,283,0.0,0.0,61,0.00,,OVC150,0.00,VWS V14.01,2013-03-18 02:23:00,
2013-03-17 22:28:00,62.9,49.3,30.18,WNW,288,0.0,0.0,61,0.00,,OVC150,0.00,VWS V14.01,2013-03-18 02:28:00,
2013-03-17 22:33:00,62.9,49.3,30.19,ESE,116,0.0,0.0,61,0.00,,OVC150,0.00,VWS V14.01,2013-03-18 02:33:00,
2013-03-17 22:38:00,62.9,49.3,30.19,ESE,103,0.0,1.0,61,0.00,,OVC150,0.00,VWS V14.01,2013-03-18 02:38:00,
2013-03-17 22:43:00,62.9,49.7,30.19,ESE,108,0.0,0.0,62,0.00,,OVC150,0.00,VWS V14.01,2013-03-18 02:43:00,
2013-03-17 22:48:00,62.9,49.7,30.19,ESE,113,0.0,0.0,62,0.00,,OVC150,0.00,VWS V14.01,2013-03-18 02:48:00,
2013-03-17 22:53:00,62.9,49.7,30.19,ESE,114,0.0,0.0,62,0.00,,OVC150,0.00,VWS V14.01,2013-03-18 02:53:00,
2013-03-17 22:58:00,62.9,49.7,30.19,South,170,0.0,0.0,62,0.00,,OVC150,0.00,VWS V14.01,2013-03-18 02:58:00,
2013-03-17 23:03:00,62.9,50.1,30.20,SSE,147,0.0,0.0,63,0.00,,OVC150,0.00,VWS V14.01,2013-03-18 03:03:00,
2013-03-17 23:08:00,62.9,50.1,30.20,SE,134,0.0,0.0,63,0.00,,OVC150,0.00,VWS V14.01,2013-03-18 03:08:00,
2013-03-17 23:13:00,62.9,50.1,30.20,East,80,0.0,0.0,63,0.00,,OVC150,0.00,VWS V14.01,2013-03-18 03:13:00,
2013-03-17 23:18:00,62.9,50.5,30.19,North,358,0.0,0.0,64,0.00,,OVC150,0.00,VWS V14.01,2013-03-18 03:18:00,
2013-03-17 23:23:00,63.1,50.7,30.19,West,259,0.0,0.0,64,0.00,,OVC150,0.00,VWS V14.01,2013-03-18 03:23:00,
2013-03-17 23:28:00,63.1,50.7,30.19,NNW,330,0.0,0.0,64,0.00,,OVC150,0.00,VWS V14.01,2013-03-18 03:28:00,
2013-03-17 23:34:00,63.2,50.8,30.19,West,269,0.0,0.0,64,0.00,,OVC150,0.00,VWS V14.01,2013-03-18 03:34:00,
2013-03-17 23:39:00,63.2,50.8,30.19,SE,141,0.0,0.0,64,0.00,,OVC150,0.00,VWS V14.01,2013-03-18 03:39:00,
2013-03-17 23:44:00,63.2,51.2,30.19,WNW,287,0.0,0.0,65,0.00,,OVC150,0.00,VWS V14.01,2013-03-18 03:44:00,
2013-03-17 23:49:00,63.2,51.2,30.18,WNW,287,0.0,0.0,65,0.00,,OVC150,0.00,VWS V14.01,2013-03-18 03:49:00,
2013-03-17 23:54:00,63.1,51.2,30.18,WNW,287,0.0,0.0,65,0.00,,OVC150,0.00,VWS V14.01,2013-03-18 03:54:00,
2013-03-17 23:59:00,63.1,51.2,30.18,WNW,287,0.0,0.0,65,0.00,,OVC150,0.00,VWS V14.01,2013-03-18 03:59:00,